Weather History for Whiteman AFB, MO

Change the Weather History Date:

Thursday, July 18, 2013

  Actual Average Record
Temperature  
Mean Temperature 84 °F -  
Max Temperature 97 °F 88 °F 105 °F (2003)
Min Temperature 73 °F 69 °F 58 °F (2014)
Cooling Degree Days 20    
Growing Degree Days 34 (Base 50)    
Moisture  
Dew Point 70 °F    
Average Humidity 66    
Maximum Humidity 100    
Minimum Humidity 35    
Precipitation  
Precipitation 0.00 in - - ()
Sea Level Pressure  
Sea Level Pressure 30.11 in    
Wind  
Wind Speed 5 mph (SSW)    
Max Wind Speed 10 mph    
Max Gust Speed -    
Visibility 10 miles    
Events      
Averages and records for this station are not official NWS values.
T = Trace of Precipitation, MM = Missing Value Source: NWS Daily Summary

Daily Weather History Graph

Daily Weather History Graph

Search for Another Location

Airport:

Trip Planner

Search our weather history database for the weather conditions in past years. The results will help you decide how hot, cold, wet, or windy it might be!

Date:

Astronomy

Jul. 18, 2013 Rise Set
Actual Time 6:04 AM CDT 8:36 PM CDT
Civil Twilight 5:33 AM CDT 9:07 PM CDT
Nautical Twilight 4:55 AM CDT 9:45 PM CDT
Astronomical Twilight 4:12 AM CDT 10:27 PM CDT
Moon 4:34 PM CDT (7/18) 1:54 AM CDT (7/18)
Length of Visible Light 15h 33m
Length of Day
14h 32m
Waxing Gibbous, 77% of the Moon is Illuminated
Jul 18
Waxing Gibbous
Jul 22
Full
Jul 29
Last Quarter
Aug 6
New
Aug 14
First Quarter

Hourly Weather History & Observations

Time (CDT) Temp. Heat Index Dew Point Humidity Pressure Visibility Wind Dir Wind Speed Gust Speed Precip Events Conditions
12:58 AM 76.8 °F - 74.5 °F 92% 30.21 in 10.0 mi ESE 5.8 mph - N/A   Clear
1:58 AM 75.0 °F - 74.7 °F 99% 30.21 in 10.0 mi SE 5.8 mph - N/A   Clear
2:58 AM 74.5 °F - 74.5 °F 100% 30.19 in 10.0 mi SE 3.5 mph - N/A   Clear
3:58 AM 73.9 °F - 73.9 °F 100% 30.17 in 10.0 mi South 3.5 mph - N/A   Clear
4:58 AM 73.4 °F - 73.4 °F 100% 30.16 in 10.0 mi South 4.6 mph - N/A   Clear
5:58 AM 73.0 °F - 73.0 °F 100% 30.17 in 10.0 mi South 3.5 mph - N/A   Clear
6:58 AM 73.4 °F - 73.4 °F 100% 30.17 in 10.0 mi SW 4.6 mph - N/A   Clear
7:58 AM 78.8 °F - 75.7 °F 90% 30.17 in 10.0 mi SW 5.8 mph - N/A   Clear
8:55 AM 84.2 °F 89.6 °F 71.6 °F 66% 30.19 in 10.0 mi WSW 5.8 mph - N/A   Clear
9:55 AM 87.8 °F 93.8 °F 71.6 °F 58% 30.18 in 10.0 mi WSW 5.8 mph - N/A   Clear
10:55 AM 89.6 °F 96.2 °F 71.6 °F 55% 30.17 in 10.0 mi Variable 3.5 mph - N/A   Clear
11:55 AM 93.2 °F 97.7 °F 68.0 °F 44% 30.16 in 10.0 mi Calm Calm - N/A   Clear
12:58 PM 93.7 °F 97.2 °F 66.6 °F 41% 30.12 in 10.0 mi WSW 9.2 mph - N/A   Scattered Clouds
1:58 PM 93.9 °F 97.0 °F 66.2 °F 40% 30.10 in 10.0 mi West 8.1 mph - N/A   Scattered Clouds
2:58 PM 95.0 °F 97.9 °F 65.8 °F 38% 30.07 in 10.0 mi WSW 10.4 mph - N/A   Scattered Clouds
3:58 PM 95.5 °F 98.4 °F 65.5 °F 37% 30.05 in 10.0 mi WSW 8.1 mph - N/A   Scattered Clouds
4:58 PM 96.4 °F 99.4 °F 65.1 °F 36% 30.02 in 10.0 mi Variable 2.3 mph - N/A   Partly Cloudy
5:58 PM 96.8 °F 99.5 °F 64.9 °F 35% 30.01 in 10.0 mi WSW 8.1 mph - N/A   Partly Cloudy
6:58 PM 95.0 °F 97.4 °F 64.6 °F 37% 30.00 in 10.0 mi SSW 2.3 mph - N/A   Partly Cloudy
7:58 PM 91.9 °F 95.4 °F 67.5 °F 44% 30.00 in 10.0 mi Calm Calm - N/A   Partly Cloudy
8:58 PM 84.7 °F 88.2 °F 68.7 °F 58% 30.02 in 10.0 mi Calm Calm - N/A   Partly Cloudy
9:58 PM 82.8 °F 86.4 °F 69.4 °F 64% 30.03 in 10.0 mi South 5.8 mph - N/A   Clear
10:58 PM 80.2 °F 83.3 °F 69.8 °F 70% 30.03 in 10.0 mi South 1.2 mph - N/A   Clear
11:58 PM 77.9 °F - 70.7 °F 78% 30.02 in 10.0 mi Calm Calm - N/A   Clear